QPF
0.00 0.01 0.02 0.01 0.01 0.01 0.01 0.01 0.01 0.01 0.01 0.01 0.01 0.01 0.01 0.01 0.01 0.01 0.00 0.00 0.01 0.01 0.00 0.01 0.01 0.00 0.00 0.00 0.01 0.02 0.01 0.02 0.03 0.03 0.01 0.01 0.01 0.00 0.00 0.00 0.00 0.00 0.00 0.01
0.00 0.01 0.01 0.01 0.00 0.00 0.00 0.00 0.01 0.01 0.01 0.01 0.01 0.01 0.01 0.01 0.01 0.01 0.00 0.00 0.00 0.01 0.00 0.00 0.00 0.00 0.00 0.01 0.01 0.02 0.01 0.01 0.01 0.02 0.02 0.02 0.01 0.01 0.01 0.00 0.00 0.00 0.00 0.01
0.01 0.01 0.00 0.00 0.01 0.01 0.00 0.00 0.00 0.01 0.00 0.01 0.01 0.01 0.01 0.00 0.00 0.00 0.00 0.00 0.00 0.01 0.00 0.00 0.00 0.00 0.00 0.00 0.01 0.01 0.00 0.00 0.00 0.01 0.01 0.01 0.00 0.00 0.00 0.00 0.00 0.00 0.01 0.01
0.01 0.00 0.00 0.00 0.00 0.01 0.01 0.01 0.01 0.01 0.01 0.01 0.01 0.01 0.01 0.00 0.01 0.00 0.00 0.00 0.00 0.01 0.00 0.00 0.00 0.00 0.00 0.00 0.00 0.00 0.00 0.00 0.00 0.01 0.01 0.01 0.00 0.01 0.00 0.00 0.00 0.00 0.00 0.00
0.01 0.01 0.01 0.01 0.01 0.01 0.01 0.01 0.01 0.02 0.01 0.01 0.00 0.01 0.01 0.00 0.01 0.01 0.01 0.01 0.01 0.01 0.01 0.00 0.01 0.01 0.01 0.01 0.00 0.00 0.00 0.00 0.00 0.01 0.00 0.00 0.00 0.00 0.00 0.00 0.00 0.00 0.00 0.00
0.01 0.01 0.01 0.01 0.00 0.01 0.01 0.02 0.02 0.02 0.01 0.01 0.00 0.01 0.01 0.00 0.01 0.01 0.00 0.00 0.00 0.00 0.00 0.00 0.00 0.01 0.01 0.01 0.00 0.00 0.00 0.01 0.00 0.00 0.00 0.00 0.00 0.00 0.00 0.00 0.00 0.00 0.00 0.00
0.01 0.01 0.01 0.01 0.01 0.01 0.01 0.02 0.02 0.02 0.02 0.01 0.00 0.00 0.01 0.00 0.01 0.00 0.00 0.00 0.00 0.00 0.00 0.00 0.00 0.01 0.01 0.00 0.00 0.00 0.00 0.01 0.01 0.00 0.00 0.00 0.00 0.00 0.00 0.00 0.00 0.00 0.00 0.00
0.00 0.01 0.01 0.01 0.01 0.01 0.01 0.01 0.01 0.01 0.01 0.00 0.00 0.01 0.01 0.01 0.01 0.00 0.00 0.00 0.00 0.00 0.00 0.01 0.01 0.01 0.00 0.00 0.00 0.00 0.00 0.01 0.01 0.00 0.00 0.00 0.00 0.00 0.00 0.00 0.00 0.00 0.00 0.00
0.00 0.00 0.00 0.00 0.00 0.01 0.00 0.01 0.00 0.00 0.00 0.00 0.00 0.00 0.01 0.01 0.00 0.00 0.00 0.00 0.00 0.00 0.00 0.00 0.00 0.00 0.00 0.00 0.00 0.00 0.00 0.01 0.00 0.00 0.00 0.00 0.00 0.00 0.00 0.00 0.00 0.00 0.00 0.00
0.00 0.00 0.00 0.00 0.00 0.00 0.00 0.00 0.00 0.00 0.00 0.00 0.00 0.01 0.00 0.01 0.00 0.00 0.00 0.00 0.00 0.00 0.00 0.00 0.01 0.00 0.00 0.00 0.00 0.00 0.00 0.00 0.00 0.00 0.00 0.00 0.00 0.00 0.00 0.00 0.00 0.00 0.00 0.01
0.00 0.00 0.00 0.00 0.00 0.00 0.00 0.00 0.00 0.00 0.00 0.00 0.01 0.00 0.00 0.00 0.00 0.00 0.00 0.00 0.00 0.00 0.00 0.00 0.00 0.01 0.00 0.00 0.00 0.00 0.00 0.00 0.00 0.00 0.00 0.00 0.00 0.00 0.00 0.00 0.00 0.00 0.00 0.00
0.00 0.00 0.00 0.00 0.00 0.00 0.00 0.00 0.00 0.00 0.00 0.00 0.00 0.00 0.00 0.00 0.00 0.00 0.00 0.00 0.00 0.00 0.00 0.00 0.00 0.00 0.00 0.00 0.00 0.00 0.00 0.00 0.00 0.00 0.00 0.00 0.00 0.00 0.00 0.00 0.00 0.00 0.00 0.00
0.00 0.00 0.00 0.00 0.00 0.00 0.00 0.00 0.00 0.00 0.00 0.00 0.00 0.00 0.00 0.00 0.00 0.00 0.00 0.00 0.00 0.00 0.00 0.00 0.00 0.00 0.00 0.00 0.00 0.00 0.00 0.00 0.00 0.00 0.00 0.00 0.00 0.00 0.00 0.00 0.00 0.00 0.00 0.00
0.00 0.00 0.00 0.00 0.00 0.00 0.00 0.00 0.00 0.00 0.01 0.00 0.00 0.00 0.00 0.00 0.00 0.00 0.00 0.00 0.00 0.00 0.00 0.00 0.00 0.00 0.00 0.00 0.00 0.00 0.00 0.00 0.00 0.00 0.00 0.00 0.00 0.00 0.00 0.00 0.00 0.00 0.00 0.00
0.00 0.00 0.00 0.00 0.00 0.00 0.00 0.00 0.00 0.00 0.00 0.00 0.00 0.00 0.00 0.00 0.00 0.00 0.00 0.00 0.00 0.00 0.00 0.00 0.00 0.00 0.00 0.00 0.00 0.00 0.00 0.00 0.00 0.00 0.00 0.00 0.00 0.00 0.00 0.00 0.01 0.01 0.00 0.00
0.00 0.00 0.00 0.00 0.00 0.00 0.00 0.00 0.00 0.00 0.00 0.00 0.00 0.00 0.00 0.00 0.00 0.00 0.00 0.00 0.00 0.00 0.00 0.00 0.00 0.00 0.00 0.00 0.00 0.00 0.00 0.00 0.00 0.01 0.01 0.00 0.00 0.00 0.00 0.00 0.01 0.01 0.00 0.00
0.00 0.00 0.00 0.00 0.00 0.00 0.00 0.00 0.00 0.00 0.00 0.00 0.00 0.00 0.00 0.00 0.00 0.00 0.00 0.00 0.00 0.00 0.00 0.00 0.00 0.00 0.00 0.00 0.00 0.00 0.00 0.00 0.00 0.01 0.01 0.01 0.01 0.00 0.00 0.00 0.00 0.00 0.00 0.00
0.00 0.00 0.00 0.00 0.00 0.00 0.00 0.00 0.00 0.00 0.01 0.00 0.00 0.00 0.00 0.00 0.00 0.00 0.00 0.00 0.00 0.00 0.00 0.00 0.00 0.00 0.00 0.00 0.00 0.00 0.00 0.00 0.00 0.00 0.01 0.01 0.01 0.01 0.00 0.00 0.00 0.00 0.00 0.00
0.00 0.00 0.00 0.00 0.00 0.00 0.00 0.00 0.00 0.00 0.01 0.00 0.00 0.00 0.00 0.00 0.00 0.00 0.00 0.00 0.00 0.00 0.00 0.00 0.00 0.00 0.00 0.00 0.00 0.00 0.00 0.00 0.00 0.00 0.01 0.01 0.01 0.01 0.01 0.00 0.00 0.00 0.00 0.00
0.00 0.00 0.00 0.00 0.00 0.00 0.00 0.00 0.00 0.00 0.01 0.01 0.00 0.00 0.00 0.00 0.00 0.00 0.00 0.00 0.00 0.00 0.00 0.00 0.00 0.00 0.00 0.00 0.00 0.00 0.00 0.00 0.00 0.00 0.00 0.00 0.01 0.01 0.01 0.00 0.00 0.00 0.00 0.00
0.00 0.00 0.00 0.00 0.00 0.00 0.00 0.00 0.00 0.00 0.00 0.00 0.00 0.00 0.00 0.00 0.00 0.00 0.00 0.00 0.00 0.00 0.00 0.00 0.00 0.00 0.00 0.00 0.00 0.00 0.00 0.00 0.00 0.00 0.00 0.00 0.00 0.01 0.00 0.00 0.00 0.00 0.00 0.00
0.00 0.00 0.00 0.00 0.00 0.00 0.00 0.00 0.00 0.00 0.00 0.00 0.00 0.00 0.00 0.00 0.00 0.00 0.00 0.00 0.00 0.00 0.00 0.00 0.00 0.00 0.00 0.00 0.00 0.00 0.00 0.00 0.00 0.01 0.01 0.00 0.00 0.00 0.01 0.01 0.00 0.00 0.00 0.00
0.00 0.00 0.00 0.00 0.00 0.00 0.00 0.00 0.00 0.00 0.00 0.00 0.00 0.00 0.00 0.00 0.00 0.00 0.00 0.00 0.00 0.00 0.00 0.00 0.00 0.00 0.00 0.00 0.00 0.00 0.00 0.00 0.00 0.00 0.01 0.01 0.01 0.00 0.00 0.01 0.01 0.01 0.00 0.00
0.00 0.00 0.00 0.00 0.00 0.00 0.00 0.00 0.00 0.00 0.00 0.00 0.00 0.00 0.00 0.00 0.00 0.00 0.00 0.00 0.00 0.00 0.00 0.00 0.00 0.00 0.00 0.00 0.00 0.00 0.00 0.00 0.00 0.00 0.00 0.01 0.01 0.01 0.00 0.01 0.01 0.01 0.01 0.00
0.00 0.00 0.00 0.00 0.00 0.00 0.00 0.00 0.00 0.00 0.00 0.00 0.00 0.00 0.00 0.00 0.00 0.00 0.00 0.00 0.00 0.00 0.00 0.00 0.00 0.00 0.00 0.00 0.00 0.00 0.00 0.00 0.00 0.00 0.00 0.01 0.01 0.01 0.01 0.01 0.01 0.01 0.01 0.01
0.00 0.00 0.01 0.01 0.00 0.00 0.00 0.00 0.00 0.00 0.00 0.00 0.00 0.00 0.00 0.00 0.00 0.00 0.00 0.00 0.00 0.00 0.00 0.00 0.00 0.00 0.00 0.00 0.00 0.00 0.00 0.00 0.00 0.00 0.00 0.01 0.01 0.01 0.01 0.01 0.01 0.01 0.01 0.01
MSLP
1012.55 1013.12 1013.57 1013.90 1014.10 1014.22 1014.30 1014.35 1014.40 1014.46 1014.50 1014.51 1014.44 1014.30 1014.06 1013.73 1013.35 1012.96 1012.60 1012.30 1012.10 1012.01 1012.03 1012.13 1012.31 1012.52 1012.76 1013.01 1013.28 1013.57 1013.88 1014.22 1014.58 1014.95 1015.31 1015.63 1015.88 1016.04 1016.09 1016.04 1015.92 1015.74 1015.54 1015.35
1013.16 1013.68 1014.06 1014.30 1014.42 1014.48 1014.51 1014.53 1014.58 1014.63 1014.68 1014.69 1014.61 1014.44 1014.16 1013.78 1013.35 1012.90 1012.49 1012.16 1011.95 1011.86 1011.90 1012.04 1012.25 1012.51 1012.79 1013.07 1013.36 1013.66 1013.98 1014.31 1014.67 1015.03 1015.38 1015.69 1015.93 1016.08 1016.12 1016.08 1015.95 1015.78 1015.59 1015.42
1013.61 1014.06 1014.36 1014.54 1014.62 1014.64 1014.65 1014.68 1014.74 1014.82 1014.89 1014.90 1014.82 1014.63 1014.32 1013.90 1013.42 1012.92 1012.48 1012.13 1011.90 1011.82 1011.88 1012.05 1012.30 1012.60 1012.91 1013.22 1013.52 1013.83 1014.14 1014.46 1014.78 1015.12 1015.43 1015.71 1015.92 1016.04 1016.08 1016.03 1015.92 1015.76 1015.59 1015.43
1013.86 1014.24 1014.48 1014.62 1014.67 1014.70 1014.74 1014.81 1014.92 1015.04 1015.14 1015.18 1015.11 1014.90 1014.56 1014.11 1013.58 1013.05 1012.57 1012.19 1011.96 1011.88 1011.95 1012.15 1012.42 1012.74 1013.08 1013.41 1013.72 1014.02 1014.31 1014.60 1014.89 1015.18 1015.45 1015.68 1015.85 1015.95 1015.97 1015.92 1015.81 1015.67 1015.53 1015.40
1013.95 1014.24 1014.43 1014.54 1014.61 1014.67 1014.76 1014.90 1015.09 1015.28 1015.44 1015.51 1015.46 1015.25 1014.89 1014.40 1013.84 1013.26 1012.75 1012.34 1012.09 1012.00 1012.08 1012.28 1012.57 1012.90 1013.24 1013.58 1013.89 1014.17 1014.44 1014.70 1014.95 1015.19 1015.41 1015.59 1015.72 1015.80 1015.81 1015.76 1015.66 1015.54 1015.42 1015.32
1013.90 1014.12 1014.26 1014.35 1014.44 1014.56 1014.73 1014.96 1015.23 1015.51 1015.74 1015.86 1015.84 1015.63 1015.26 1014.74 1014.14 1013.53 1012.98 1012.54 1012.26 1012.15 1012.20 1012.39 1012.67 1013.00 1013.34 1013.66 1013.96 1014.22 1014.46 1014.68 1014.89 1015.09 1015.27 1015.42 1015.53 1015.59 1015.60 1015.56 1015.48 1015.39 1015.29 1015.21
1013.80 1013.93 1014.02 1014.10 1014.21 1014.38 1014.64 1014.96 1015.34 1015.70 1016.00 1016.18 1016.18 1015.98 1015.60 1015.06 1014.43 1013.79 1013.20 1012.73 1012.42 1012.27 1012.30 1012.46 1012.71 1013.01 1013.32 1013.61 1013.88 1014.12 1014.32 1014.52 1014.70 1014.87 1015.02 1015.16 1015.26 1015.33 1015.35 1015.33 1015.28 1015.22 1015.15 1015.08
1013.68 1013.73 1013.77 1013.83 1013.96 1014.19 1014.51 1014.92 1015.37 1015.81 1016.17 1016.38 1016.41 1016.23 1015.85 1015.30 1014.66 1013.99 1013.38 1012.88 1012.54 1012.36 1012.34 1012.46 1012.66 1012.91 1013.17 1013.42 1013.65 1013.84 1014.02 1014.18 1014.35 1014.50 1014.66 1014.80 1014.92 1015.01 1015.06 1015.08 1015.07 1015.04 1015.00 1014.95
1013.61 1013.58 1013.57 1013.61 1013.74 1013.99 1014.36 1014.82 1015.33 1015.82 1016.21 1016.46 1016.50 1016.34 1015.96 1015.42 1014.78 1014.11 1013.50 1012.99 1012.62 1012.42 1012.36 1012.42 1012.56 1012.75 1012.94 1013.13 1013.30 1013.44 1013.58 1013.72 1013.87 1014.03 1014.19 1014.36 1014.51 1014.65 1014.75 1014.81 1014.85 1014.85 1014.84 1014.81
1013.61 1013.52 1013.46 1013.47 1013.60 1013.86 1014.24 1014.72 1015.24 1015.74 1016.15 1016.41 1016.46 1016.30 1015.94 1015.42 1014.80 1014.17 1013.57 1013.08 1012.72 1012.49 1012.40 1012.41 1012.48 1012.59 1012.70 1012.81 1012.90 1012.99 1013.08 1013.19 1013.32 1013.49 1013.67 1013.87 1014.07 1014.25 1014.40 1014.51 1014.60 1014.64 1014.66 1014.66
1013.71 1013.57 1013.48 1013.47 1013.58 1013.82 1014.19 1014.66 1015.17 1015.65 1016.04 1016.27 1016.32 1016.17 1015.83 1015.34 1014.78 1014.20 1013.66 1013.21 1012.87 1012.66 1012.54 1012.51 1012.52 1012.54 1012.56 1012.57 1012.57 1012.58 1012.61 1012.68 1012.80 1012.96 1013.16 1013.38 1013.61 1013.83 1014.03 1014.19 1014.31 1014.39 1014.44 1014.46
1013.89 1013.73 1013.62 1013.60 1013.70 1013.92 1014.26 1014.70 1015.17 1015.60 1015.95 1016.15 1016.18 1016.02 1015.71 1015.28 1014.78 1014.28 1013.83 1013.45 1013.17 1012.98 1012.87 1012.80 1012.74 1012.68 1012.61 1012.51 1012.41 1012.33 1012.29 1012.30 1012.38 1012.52 1012.72 1012.95 1013.19 1013.43 1013.65 1013.83 1013.97 1014.08 1014.15 1014.20
1014.12 1013.98 1013.89 1013.87 1013.97 1014.18 1014.50 1014.89 1015.30 1015.67 1015.96 1016.11 1016.11 1015.96 1015.68 1015.30 1014.89 1014.49 1014.14 1013.86 1013.66 1013.51 1013.41 1013.32 1013.22 1013.08 1012.90 1012.70 1012.50 1012.32 1012.19 1012.13 1012.15 1012.25 1012.42 1012.62 1012.85 1013.07 1013.27 1013.44 1013.58 1013.69 1013.78 1013.85
1014.39 1014.29 1014.23 1014.25 1014.37 1014.58 1014.88 1015.24 1015.59 1015.90 1016.12 1016.22 1016.19 1016.03 1015.78 1015.47 1015.15 1014.86 1014.62 1014.45 1014.33 1014.25 1014.18 1014.08 1013.93 1013.72 1013.45 1013.15 1012.85 1012.57 1012.35 1012.21 1012.16 1012.19 1012.30 1012.45 1012.62 1012.79 1012.94 1013.06 1013.15 1013.23 1013.30 1013.38
1014.65 1014.62 1014.62 1014.70 1014.86 1015.10 1015.40 1015.72 1016.03 1016.28 1016.44 1016.49 1016.43 1016.27 1016.05 1015.80 1015.57 1015.38 1015.26 1015.19 1015.17 1015.15 1015.11 1015.01 1014.82 1014.55 1014.21 1013.82 1013.42 1013.05 1012.74 1012.51 1012.38 1012.34 1012.36 1012.43 1012.52 1012.60 1012.66 1012.69 1012.71 1012.73 1012.75 1012.80
1014.88 1014.92 1015.01 1015.17 1015.39 1015.66 1015.98 1016.29 1016.57 1016.77 1016.88 1016.89 1016.80 1016.64 1016.44 1016.26 1016.11 1016.02 1016.00 1016.03 1016.08 1016.12 1016.11 1016.01 1015.80 1015.49 1015.08 1014.62 1014.14 1013.69 1013.30 1013.00 1012.78 1012.66 1012.59 1012.56 1012.54 1012.51 1012.45 1012.37 1012.28 1012.19 1012.14 1012.14
1015.07 1015.19 1015.36 1015.59 1015.88 1016.21 1016.55 1016.87 1017.13 1017.30 1017.37 1017.34 1017.23 1017.08 1016.91 1016.78 1016.70 1016.69 1016.75 1016.86 1016.97 1017.06 1017.06 1016.96 1016.73 1016.38 1015.93 1015.42 1014.89 1014.38 1013.93 1013.57 1013.29 1013.09 1012.94 1012.81 1012.67 1012.52 1012.32 1012.11 1011.88 1011.68 1011.52 1011.43
1015.21 1015.40 1015.64 1015.95 1016.30 1016.68 1017.05 1017.37 1017.62 1017.77 1017.82 1017.78 1017.67 1017.52 1017.38 1017.29 1017.26 1017.31 1017.43 1017.59 1017.75 1017.85 1017.87 1017.75 1017.51 1017.13 1016.65 1016.11 1015.54 1015.01 1014.53 1014.13 1013.80 1013.54 1013.32 1013.10 1012.87 1012.59 1012.27 1011.91 1011.55 1011.21 1010.93 1010.73
1015.33 1015.56 1015.86 1016.22 1016.62 1017.03 1017.42 1017.76 1018.00 1018.14 1018.18 1018.14 1018.03 1017.90 1017.79 1017.73 1017.75 1017.84 1017.99 1018.17 1018.33 1018.44 1018.44 1018.31 1018.05 1017.65 1017.15 1016.60 1016.03 1015.48 1015.00 1014.58 1014.23 1013.94 1013.66 1013.38 1013.06 1012.68 1012.24 1011.77 1011.27 1010.81 1010.40 1010.08
1015.44 1015.70 1016.04 1016.43 1016.85 1017.28 1017.68 1018.01 1018.26 1018.40 1018.44 1018.40 1018.31 1018.20 1018.12 1018.09 1018.13 1018.24 1018.40 1018.58 1018.73 1018.81 1018.78 1018.63 1018.34 1017.92 1017.42 1016.86 1016.30 1015.76 1015.29 1014.87 1014.52 1014.20 1013.90 1013.56 1013.18 1012.72 1012.20 1011.63 1011.03 1010.45 1009.93 1009.50
1015.57 1015.85 1016.20 1016.60 1017.03 1017.45 1017.85 1018.17 1018.41 1018.56 1018.61 1018.58 1018.52 1018.44 1018.39 1018.38 1018.44 1018.55 1018.69 1018.84 1018.96 1019.00 1018.93 1018.73 1018.41 1017.98 1017.47 1016.92 1016.37 1015.85 1015.39 1014.98 1014.63 1014.31 1013.98 1013.61 1013.18 1012.68 1012.10 1011.46 1010.79 1010.13 1009.52 1008.99
1015.76 1016.04 1016.38 1016.78 1017.19 1017.60 1017.98 1018.30 1018.53 1018.68 1018.74 1018.75 1018.71 1018.67 1018.64 1018.65 1018.71 1018.81 1018.93 1019.03 1019.09 1019.07 1018.95 1018.71 1018.35 1017.90 1017.39 1016.84 1016.30 1015.80 1015.34 1014.94 1014.58 1014.24 1013.89 1013.50 1013.04 1012.50 1011.88 1011.21 1010.50 1009.79 1009.13 1008.54
1016.00 1016.29 1016.62 1017.00 1017.40 1017.79 1018.14 1018.45 1018.68 1018.83 1018.92 1018.95 1018.94 1018.93 1018.93 1018.95 1019.01 1019.08 1019.15 1019.20 1019.20 1019.11 1018.93 1018.64 1018.25 1017.78 1017.25 1016.70 1016.17 1015.66 1015.20 1014.79 1014.41 1014.04 1013.66 1013.23 1012.74 1012.18 1011.55 1010.86 1010.14 1009.42 1008.74 1008.11
1016.31 1016.59 1016.93 1017.29 1017.67 1018.04 1018.38 1018.67 1018.90 1019.06 1019.17 1019.23 1019.26 1019.28 1019.29 1019.32 1019.36 1019.40 1019.42 1019.40 1019.33 1019.18 1018.93 1018.59 1018.16 1017.67 1017.13 1016.58 1016.04 1015.52 1015.04 1014.60 1014.18 1013.76 1013.33 1012.86 1012.33 1011.75 1011.10 1010.42 1009.71 1009.01 1008.33 1007.70
1016.65 1016.95 1017.28 1017.64 1018.01 1018.37 1018.70 1018.98 1019.22 1019.40 1019.53 1019.61 1019.67 1019.70 1019.73 1019.75 1019.77 1019.77 1019.74 1019.66 1019.51 1019.30 1019.00 1018.61 1018.15 1017.64 1017.09 1016.53 1015.97 1015.43 1014.91 1014.42 1013.94 1013.46 1012.96 1012.43 1011.86 1011.25 1010.60 1009.93 1009.24 1008.57 1007.91 1007.30
1016.99 1017.31 1017.66 1018.03 1018.40 1018.75 1019.08 1019.37 1019.61 1019.80 1019.95 1020.06 1020.13 1020.18 1020.22 1020.22 1020.21 1020.17 1020.08 1019.94 1019.73 1019.46 1019.11 1018.69 1018.21 1017.68 1017.12 1016.55 1015.98 1015.41 1014.86 1014.30 1013.76 1013.20 1012.63 1012.03 1011.41 1010.77 1010.11 1009.44 1008.78 1008.14 1007.52 1006.93
Thickness
5715 5711 5706 5712 5716 5716 5716 5713 5713 5719 5728 5726 5726 5730 5738 5744 5744 5746 5748 5752 5753 5752 5754 5754 5753 5752 5750 5748 5746 5743 5739 5736 5733 5730 5727 5724 5722 5721 5719 5717 5713 5710 5708 5705
5709 5707 5715 5718 5716 5714 5714 5712 5714 5721 5727 5727 5727 5730 5739 5741 5740 5743 5747 5749 5750 5749 5750 5749 5749 5749 5748 5745 5743 5741 5737 5734 5731 5728 5726 5723 5720 5719 5717 5714 5711 5708 5705 5702
5708 5712 5718 5715 5712 5710 5712 5714 5716 5717 5723 5728 5726 5726 5732 5737 5741 5742 5746 5748 5749 5747 5748 5747 5745 5745 5744 5742 5740 5738 5736 5733 5729 5727 5724 5720 5717 5716 5714 5712 5709 5706 5703 5700
5712 5716 5714 5712 5712 5713 5708 5719 5719 5719 5719 5718 5724 5714 5726 5733 5736 5739 5743 5745 5746 5746 5747 5746 5743 5742 5741 5740 5739 5737 5735 5732 5728 5725 5722 5719 5716 5714 5712 5711 5708 5705 5702 5699
5710 5714 5713 5710 5714 5717 5715 5721 5721 5721 5721 5720 5724 5721 5723 5733 5731 5737 5742 5745 5747 5747 5746 5744 5743 5742 5741 5739 5737 5735 5733 5730 5727 5724 5720 5717 5716 5714 5713 5710 5706 5704 5702 5698
5715 5720 5720 5718 5721 5722 5721 5720 5720 5723 5724 5710 5717 5720 5715 5729 5732 5737 5742 5744 5746 5746 5746 5745 5744 5742 5739 5737 5734 5732 5730 5727 5725 5722 5721 5718 5715 5712 5709 5706 5704 5703 5701 5697
5711 5716 5722 5724 5719 5720 5721 5716 5707 5705 5707 5708 5720 5719 5718 5732 5738 5740 5741 5744 5746 5746 5745 5743 5741 5738 5735 5733 5732 5730 5727 5724 5723 5722 5721 5719 5715 5712 5709 5706 5704 5701 5699 5696
5708 5706 5719 5723 5722 5719 5721 5722 5709 5700 5702 5710 5719 5716 5725 5737 5740 5743 5744 5744 5743 5743 5743 5741 5740 5738 5735 5732 5730 5728 5726 5723 5722 5720 5720 5719 5716 5712 5710 5707 5704 5701 5698 5696
5714 5710 5723 5725 5728 5727 5721 5721 5726 5721 5716 5713 5716 5722 5731 5738 5738 5739 5741 5741 5740 5741 5741 5740 5739 5737 5735 5732 5730 5728 5726 5723 5721 5720 5718 5717 5715 5712 5709 5707 5704 5701 5698 5695
5725 5713 5721 5724 5728 5724 5728 5727 5724 5719 5707 5702 5708 5714 5718 5726 5729 5734 5736 5737 5738 5739 5740 5739 5738 5736 5735 5733 5730 5729 5726 5723 5721 5720 5718 5715 5713 5710 5708 5706 5702 5700 5697 5694
5726 5720 5717 5722 5720 5721 5722 5722 5723 5722 5721 5710 5702 5709 5728 5727 5729 5731 5734 5736 5736 5737 5738 5738 5737 5736 5734 5732 5729 5726 5724 5722 5721 5719 5717 5714 5712 5709 5707 5704 5701 5699 5696 5693
5725 5725 5716 5718 5725 5727 5727 5726 5725 5718 5713 5718 5715 5712 5732 5732 5732 5732 5733 5734 5735 5735 5736 5736 5734 5733 5731 5729 5728 5725 5724 5721 5719 5717 5716 5713 5711 5708 5705 5703 5701 5698 5695 5693
5724 5722 5710 5708 5714 5722 5722 5721 5723 5725 5721 5717 5712 5711 5731 5733 5731 5731 5730 5731 5732 5733 5733 5733 5731 5729 5728 5727 5726 5725 5723 5721 5719 5716 5714 5712 5709 5707 5704 5702 5700 5698 5695 5693
5723 5722 5716 5707 5712 5717 5716 5716 5718 5721 5717 5715 5716 5717 5723 5726 5725 5726 5727 5728 5729 5729 5729 5728 5725 5725 5724 5724 5723 5722 5721 5719 5717 5714 5711 5709 5707 5704 5702 5701 5698 5697 5695 5692
5724 5719 5718 5717 5717 5716 5715 5715 5716 5717 5720 5717 5718 5716 5719 5721 5721 5723 5724 5724 5724 5723 5723 5722 5721 5721 5720 5720 5719 5718 5717 5716 5714 5712 5709 5707 5706 5703 5700 5698 5696 5694 5692 5691
5721 5716 5714 5710 5712 5713 5710 5714 5714 5713 5715 5716 5715 5713 5720 5720 5721 5720 5720 5719 5718 5717 5718 5719 5719 5717 5717 5716 5714 5713 5712 5712 5711 5709 5706 5704 5702 5700 5697 5695 5694 5692 5690 5689
5713 5713 5707 5707 5708 5707 5704 5712 5711 5709 5711 5712 5709 5711 5714 5713 5711 5713 5714 5714 5712 5712 5712 5712 5714 5714 5714 5714 5712 5710 5710 5709 5707 5705 5702 5700 5699 5696 5694 5693 5691 5689 5687 5687
5708 5707 5706 5703 5700 5687 5705 5714 5711 5706 5705 5708 5707 5708 5709 5708 5708 5710 5710 5709 5708 5707 5707 5707 5708 5709 5710 5711 5709 5708 5707 5705 5703 5701 5699 5697 5695 5693 5691 5690 5688 5687 5687 5685
5704 5702 5700 5698 5693 5696 5700 5705 5705 5702 5697 5703 5702 5702 5703 5706 5706 5705 5704 5703 5702 5701 5701 5701 5702 5704 5705 5704 5704 5703 5702 5700 5698 5695 5694 5693 5691 5689 5688 5686 5685 5685 5685 5683
5694 5698 5698 5692 5686 5686 5699 5705 5707 5702 5691 5699 5700 5697 5698 5699 5696 5696 5697 5696 5695 5695 5695 5695 5696 5698 5697 5697 5697 5696 5695 5694 5691 5690 5689 5689 5687 5685 5684 5684 5683 5682 5681 5680
5686 5686 5688 5688 5687 5695 5699 5700 5698 5686 5690 5695 5696 5694 5693 5691 5692 5691 5691 5690 5689 5687 5687 5688 5689 5689 5688 5689 5689 5689 5689 5687 5686 5685 5684 5683 5682 5681 5681 5680 5679 5678 5678 5677
5689 5686 5685 5685 5682 5686 5693 5694 5690 5690 5693 5691 5690 5689 5686 5685 5684 5684 5683 5681 5681 5680 5679 5680 5680 5680 5680 5681 5680 5680 5679 5679 5679 5677 5676 5676 5676 5676 5676 5675 5673 5673 5673 5672
5682 5687 5688 5687 5684 5685 5688 5687 5686 5687 5685 5683 5682 5681 5679 5676 5675 5675 5674 5675 5674 5673 5672 5672 5672 5671 5672 5671 5671 5670 5670 5670 5670 5669 5669 5669 5670 5670 5669 5668 5668 5668 5668 5668
5675 5674 5675 5675 5676 5676 5676 5678 5678 5678 5676 5676 5675 5673 5672 5669 5668 5667 5667 5668 5666 5665 5664 5663 5663 5663 5663 5662 5662 5662 5662 5661 5661 5662 5662 5663 5663 5663 5663 5661 5662 5662 5662 5662
5666 5665 5667 5667 5667 5666 5667 5668 5668 5668 5668 5667 5666 5664 5663 5661 5660 5660 5659 5659 5658 5657 5655 5654 5654 5654 5654 5653 5653 5653 5652 5652 5653 5654 5655 5655 5654 5655 5654 5654 5654 5654 5655 5656
5659 5658 5657 5660 5664 5662 5660 5661 5660 5658 5657 5657 5656 5655 5654 5653 5652 5651 5651 5650 5649 5648 5647 5645 5645 5645 5645 5644 5644 5643 5642 5642 5643 5644 5645 5645 5644 5644 5645 5644 5644 5643 5643 5643